Perry, FL

6:21 PM EST on January 23, 2017 (GMT -0500)
Perry

Weather History for K40J - February, 2013

Change the Weather History Date:

Saturday, February 2, 2013

  Actual Average (KVLD) Record (KVLD)
Temperature  
Mean Temperature 48 °F -  
Max Temperature 63 °F 62 °F 82 °F (2016)
Min Temperature 33 °F 39 °F 1 °F (2014)
Degree Days  
Heating Degree Days 17    
Moisture  
Dew Point 22 °F    
Average Humidity 45    
Maximum Humidity 82    
Minimum Humidity 17    
Precipitation  
Precipitation 0.00 in - - ()
Sea Level Pressure  
Sea Level Pressure 30.29 in    
Wind  
Wind Speed 3 mph (NNE)    
Max Wind Speed 10 mph    
Max Gust Speed -    
Averages and records for this station are not official NWS values.
T = Trace of Precipitation, MM = Missing Value Source: NWS Daily Summary

Daily Weather History Graph

Daily Weather History Graph

Search for Another Location

Airport or City:

Trip Planner

Search our weather history database for the weather conditions in past years. The results will help you decide how hot, cold, wet, or windy it might be!

Date:

Astronomy

Feb. 02, 2013 Rise Set
Actual Time 7:23 AM EST 6:12 PM EST
Civil Twilight 6:58 AM EST 6:37 PM EST
Nautical Twilight 6:30 AM EST 7:06 PM EST
Astronomical Twilight 6:02 AM EST 7:34 PM EST
Moon No Moon Rise 11:07 AM EST (2/2)
Length of Visible Light 11h 38m
Length of Day
10h 48m
Waning Gibbous, 60% of the Moon is Illuminated
Feb 2
Waning Gibbous
Feb 3
Last Quarter
Feb 10
New
Feb 17
First Quarter
Feb 25
Full

Hourly Weather History & Observations

Time (EST) Temp. Windchill Dew Point Humidity Pressure Visibility Wind Dir Wind Speed Gust Speed Precip Events Conditions
12:53 AM 39.9 °F 37.8 °F 24.1 °F 53% 30.34 in - NNE 3.5 mph - N/A   Unknown
1:53 AM 37.9 °F - 23.0 °F 55% 30.33 in - Calm Calm - N/A   Unknown
2:53 AM 35.1 °F 32.2 °F 21.9 °F 59% 30.34 in - NE 3.5 mph - N/A   Unknown
3:53 AM 35.1 °F 32.2 °F 21.0 °F 57% 30.35 in - NE 3.5 mph - N/A   Unknown
4:53 AM 34.0 °F 29.8 °F 19.9 °F 56% 30.35 in - NNE 4.6 mph - N/A   Unknown
5:53 AM 33.1 °F 30.0 °F 19.0 °F 56% 30.36 in - NE 3.5 mph - N/A   Unknown
6:53 AM 33.1 °F 30.0 °F 17.1 °F 52% 30.37 in - NE 3.5 mph - N/A   Unknown
7:53 AM 33.1 °F 28.7 °F 16.0 °F 50% 30.37 in - NE 4.6 mph - N/A   Unknown
8:53 AM 39.0 °F 35.7 °F 15.1 °F 38% 30.37 in - ENE 4.6 mph - N/A   Unknown
9:53 AM 45.0 °F 42.6 °F 16.0 °F 31% 30.37 in - ENE 4.6 mph - N/A   Unknown
10:53 AM 51.1 °F - 18.0 °F 27% 30.36 in - Variable 5.8 mph - N/A   Unknown
11:53 AM 55.0 °F - 18.0 °F 23% 30.33 in - Calm Calm - N/A   Unknown
12:53 PM 57.9 °F - 16.0 °F 19% 30.29 in - Calm Calm - N/A   Unknown
1:53 PM 61.0 °F - 16.0 °F 17% 30.25 in - Variable 3.5 mph - N/A   Unknown
2:53 PM 63.0 °F - 17.1 °F 17% 30.22 in - Calm Calm - N/A   Unknown
3:53 PM 63.0 °F - 25.0 °F 24% 30.21 in - WSW 9.2 mph - N/A   Unknown
4:53 PM 60.1 °F - 25.0 °F 26% 30.21 in - West 10.4 mph - N/A   Unknown
5:53 PM 55.0 °F - 27.0 °F 34% 30.20 in - SW 6.9 mph - N/A   Unknown
6:53 PM 48.0 °F - 28.0 °F 46% 30.21 in - WSW 4.6 mph - N/A   Unknown
7:53 PM 44.1 °F - 28.9 °F 55% 30.21 in - Calm Calm - N/A   Unknown
8:53 PM 42.1 °F - 28.9 °F 60% 30.22 in - Calm Calm - N/A   Unknown
9:53 PM 39.9 °F - 30.0 °F 68% 30.21 in - Calm Calm - N/A   Unknown
10:53 PM 37.0 °F - 30.9 °F 79% 30.20 in - Calm Calm - N/A   Unknown
11:53 PM 36.0 °F - 30.9 °F 82% 30.21 in - Calm Calm - N/A   Unknown